| time (UTC) | temp F | wind direction | speed knots | gust knots | rain 1hr in | rain 24hr in | rain mn in | humidity % | barometer mb |
| 20260506172955 | 67 | 353 | 3.5 | 7.8 | 0.00 | 0.00 | 0.00 | 82 | 1011.4 |
| 20260506172450 | 67 | 49 | 2.6 | 7.8 | 0.00 | 0.00 | 0.00 | 83 | 1011.4 |
| 20260506171951 | 66 | 27 | 2.6 | 6.1 | 0.00 | 0.00 | 0.00 | 84 | 1011.3 |
| 20260506171451 | 65 | 49 | 3.5 | 10.4 | 0.00 | 0.00 | 0.00 | 84 | 1011.5 |
| 20260506170951 | 64 | 345 | 3.5 | 10.4 | 0.00 | 0.00 | 0.00 | 86 | 1011.4 |
| 20260506170450 | 64 | 11 | 3.5 | 8.7 | 0.00 | 0.00 | 0.00 | 86 | 1011.4 |
| 20260506165952 | 64 | 84 | 3.5 | 7.8 | 0.00 | 0.00 | 0.00 | 86 | 1011.6 |
| 20260506165453 | 63 | 80 | 4.3 | 11.3 | 0.00 | 0.00 | 0.00 | 89 | 1011.4 |
| 20260506164945 | 62 | 30 | 5.2 | 22.6 | 0.00 | 0.00 | 0.00 | 90 | 1011.7 |
| 20260506164445 | 62 | 21 | 5.2 | 22.6 | 0.00 | 0.00 | 0.00 | 91 | 1012.0 |
| 20260506163946 | 62 | 43 | 5.2 | 9.6 | 0.00 | 0.00 | 0.00 | 92 | 1012.1 |
| 20260506163443 | 62 | 28 | 5.2 | 9.6 | 0.00 | 0.00 | 0.00 | 92 | 1012.3 |
| 20260506162940 | 61 | 14 | 5.2 | 10.4 | 0.00 | 0.00 | 0.00 | 94 | 1012.1 |
| 20260506162439 | 61 | 45 | 4.3 | 10.4 | 0.00 | 0.00 | 0.00 | 95 | 1011.9 |
| 20260506161937 | 60 | 34 | 4.3 | 8.7 | 0.00 | 0.00 | 0.00 | 94 | 1012.1 |
| 20260506161438 | 60 | 37 | 4.3 | 8.7 | 0.00 | 0.00 | 0.00 | 94 | 1012.7 |
| 20260506161220 | 61 | 60 | 3.5 | 8.7 | 0.00 | 0.00 | 0.00 | 94 | 1012.9 |
| 20260506160717 | 61 | 102 | 4.3 | 11.3 | 0.00 | 0.00 | 0.00 | 94 | 1013.2 |
| 20260506155937 | 61 | 21 | 4.3 | 11.3 | 0.00 | 0.00 | 0.00 | 94 | 1013.0 |
| 20260506155436 | 62 | 41 | 5.2 | 8.7 | 0.00 | 0.00 | 0.00 | 94 | 1012.9 |
| 20260506154937 | 62 | 41 | 4.3 | 9.6 | 0.00 | 0.00 | 0.00 | 94 | 1012.9 |
| 20260506154437 | 62 | 43 | 4.3 | 9.6 | 0.00 | 0.00 | 0.00 | 93 | 1012.9 |
| 20260506154220 | 63 | 45 | 4.3 | 12.2 | 0.00 | 0.00 | 0.00 | 92 | 1012.8 |
| 20260506153438 | 64 | 41 | 4.3 | 12.2 | 0.00 | 0.00 | 0.00 | 92 | 1012.7 |
| 20260506152938 | 65 | 47 | 4.3 | 9.6 | 0.00 | 0.00 | 0.00 | 91 | 1012.5 |
| 20260506152437 | 65 | 236 | 4.3 | 9.6 | 0.00 | 0.00 | 0.00 | 91 | 1012.3 |
| 20260506152222 | 65 | 288 | 5.2 | 8.7 | 0.00 | 0.00 | 0.00 | 91 | 1011.8 |
| 20260506151438 | 65 | 37 | 5.2 | 10.4 | 0.00 | 0.00 | 0.00 | 91 | 1011.6 |
| 20260506150934 | 65 | 41 | 5.2 | 10.4 | 0.00 | 0.00 | 0.00 | 91 | 1011.7 |
| 20260506150432 | 66 | 53 | 4.3 | 8.7 | 0.00 | 0.00 | 0.00 | 90 | 1011.6 |
| 20260506145932 | 67 | 51 | 3.5 | 8.7 | 0.00 | 0.00 | 0.00 | 90 | 1011.4 |
| 20260506145432 | 68 | 48 | 3.5 | 7.8 | 0.00 | 0.00 | 0.00 | 89 | 1011.1 |
| 20260506144932 | 70 | 22 | 3.5 | 7.8 | 0.00 | 0.00 | 0.00 | 88 | 1010.8 |
| 20260506144711 | 73 | 39 | 3.5 | 6.1 | 0.00 | 0.00 | 0.00 | 86 | 1010.5 |
| 20260506143930 | 77 | 6 | 1.7 | 6.1 | 0.00 | 0.00 | 0.00 | 80 | 1010.5 |
| 20260506143429 | 78 | 0 | 0.9 | 2.6 | 0.00 | 0.00 | 0.00 | 86 | 1010.1 |
| 20260506143152 | 78 | 63 | 0.9 | 2.6 | 0.00 | 0.00 | 0.00 | 87 | 1009.8 |
| 20260506142432 | 78 | 117 | 0.9 | 2.6 | 0.00 | 0.00 | 0.00 | 87 | 1009.7 |
| 20260506141931 | 78 | 152 | 1.7 | 3.5 | 0.00 | 0.00 | 0.00 | 88 | 1009.7 |
| 20260506141430 | 78 | 19 | 1.7 | 3.5 | 0.00 | 0.00 | 0.00 | 88 | 1009.5 |
| 20260506140930 | 77 | 147 | 0.9 | 3.5 | 0.00 | 0.00 | 0.00 | 90 | 1009.5 |
| 20260506140430 | 77 | 16 | 1.7 | 3.5 | 0.00 | 0.00 | 0.00 | 89 | 1009.7 |
| 20260506135930 | 76 | 195 | 1.7 | 5.2 | 0.00 | 0.00 | 0.00 | 90 | 1009.9 |
| 20260506135430 | 76 | 320 | 1.7 | 5.2 | 0.00 | 0.00 | 0.00 | 90 | 1009.6 |
| 20260506134930 | 76 | 126 | 1.7 | 4.3 | 0.00 | 0.00 | 0.00 | 90 | 1009.4 |
| 20260506134430 | 76 | 106 | 1.7 | 3.5 | 0.00 | 0.00 | 0.00 | 91 | 1009.3 |
| 20260506133930 | 77 | 137 | 1.7 | 3.5 | 0.00 | 0.00 | 0.00 | 90 | 1009.4 |
| 20260506133430 | 77 | 173 | 0.9 | 2.6 | 0.00 | 0.00 | 0.00 | 90 | 1009.5 |
| 20260506132931 | 76 | 89 | 0.9 | 2.6 | 0.00 | 0.00 | 0.00 | 90 | 1009.3 |
| 20260506132431 | 76 | 101 | 1.7 | 3.5 | 0.00 | 0.00 | 0.00 | 91 | 1009.2 |
| 20260506131930 | 75 | 297 | 0.9 | 3.5 | 0.00 | 0.00 | 0.00 | 93 | 1009.1 |
| 20260506131654 | 75 | 321 | 1.7 | 4.3 | 0.00 | 0.00 | 0.00 | 93 | 1009.1 |
| 20260506131154 | 75 | 143 | 1.7 | 4.3 | 0.00 | 0.00 | 0.00 | 94 | 1009.1 |
| 20260506130430 | 75 | 22 | 0.9 | 1.7 | 0.00 | 0.00 | 0.00 | 94 | 1009.1 |
| 20260506125929 | 74 | 296 | 0.9 | 3.5 | 0.00 | 0.00 | 0.00 | 95 | 1009.1 |
| 20260506125430 | 74 | 137 | 1.7 | 3.5 | 0.00 | 0.00 | 0.00 | 95 | 1009.0 |
| 20260506124930 | 74 | 306 | 1.7 | 3.5 | 0.00 | 0.00 | 0.00 | 95 | 1009.0 |
| 20260506124430 | 74 | 340 | 1.7 | 3.5 | 0.00 | 0.00 | 0.00 | 95 | 1008.9 |
| 20260506124155 | 74 | 86 | 1.7 | 3.5 | 0.00 | 0.00 | 0.00 | 95 | 1008.9 |
| 20260506123655 | 74 | 156 | 1.7 | 3.5 | 0.00 | 0.00 | 0.00 | 95 | 1008.8 |
| 20260506122930 | 74 | 156 | 0.9 | 2.6 | 0.00 | 0.00 | 0.00 | 95 | 1008.9 |
| 20260506122433 | 74 | 0 | 0.9 | 2.6 | 0.00 | 0.00 | 0.00 | 95 | 1008.8 |
| 20260506121930 | 74 | 133 | 0.9 | 2.6 | 0.00 | 0.00 | 0.00 | 95 | 1008.8 |
| 20260506121430 | 74 | 114 | 0.9 | 2.6 | 0.00 | 0.00 | 0.00 | 94 | 1008.8 |
| 20260506120930 | 74 | 125 | 0.9 | 2.6 | 0.00 | 0.00 | 0.00 | 94 | 1008.8 |
| 20260506120429 | 74 | 129 | 0.9 | 1.7 | 0.00 | 0.00 | 0.00 | 94 | 1008.8 |
| 20260506115930 | 74 | 114 | 0.9 | 1.7 | 0.00 | 0.00 | 0.00 | 94 | 1008.7 |
| 20260506115925 | 74 | 231 | 0.9 | 1.7 | 0.00 | 0.00 | 0.00 | 94 | 1008.6 |
| 20260506114930 | 74 | 0 | 0.9 | 1.7 | 0.00 | 0.00 | 0.00 | 94 | 1008.7 |
| 20260506114430 | 74 | 316 | 0.9 | 1.7 | 0.00 | 0.00 | 0.00 | 94 | 1008.7 |
| 20260506113930 | 74 | 140 | 0.9 | 2.6 | 0.00 | 0.00 | 0.00 | 94 | 1008.7 |
| 20260506113430 | 74 | 197 | 0.9 | 2.6 | 0.00 | 0.00 | 0.00 | 94 | 1008.8 |
| 20260506112930 | 74 | 0 | 0.9 | 1.7 | 0.00 | 0.00 | 0.00 | 94 | 1008.8 |
| 20260506112431 | 74 | 251 | 0.0 | 1.7 | 0.00 | 0.00 | 0.00 | 94 | 1008.8 |
| 20260506111930 | 74 | 127 | 0.0 | 1.7 | 0.00 | 0.00 | 0.00 | 94 | 1008.8 |
| 20260506111430 | 74 | 0 | 0.9 | 1.7 | 0.00 | 0.00 | 0.00 | 93 | 1008.8 |
| 20260506110929 | 74 | 282 | 0.9 | 1.7 | 0.00 | 0.00 | 0.00 | 93 | 1008.7 |
| 20260506110430 | 75 | 195 | 0.9 | 1.7 | 0.00 | 0.00 | 0.00 | 93 | 1008.7 |
| 20260506105930 | 75 | 273 | 0.9 | 1.7 | 0.00 | 0.00 | 0.00 | 93 | 1008.7 |
| 20260506105430 | 75 | 0 | 0.9 | 1.7 | 0.00 | 0.00 | 0.00 | 93 | 1008.6 |
| 20260506104930 | 75 | 311 | 0.9 | 4.3 | 0.00 | 0.00 | 0.00 | 93 | 1008.6 |
| 20260506104429 | 75 | 275 | 1.7 | 4.3 | 0.00 | 0.00 | 0.00 | 93 | 1008.6 |
| 20260506103930 | 75 | 171 | 0.9 | 2.6 | 0.00 | 0.00 | 0.00 | 93 | 1008.5 |
| 20260506103429 | 75 | 154 | 0.9 | 2.6 | 0.00 | 0.00 | 0.00 | 93 | 1008.4 |
| 20260506102929 | 75 | 192 | 0.9 | 2.6 | 0.00 | 0.00 | 0.00 | 93 | 1008.4 |
| 20260506102430 | 75 | 224 | 1.7 | 3.5 | 0.00 | 0.00 | 0.00 | 92 | 1008.3 |
| 20260506101930 | 75 | 174 | 1.7 | 3.5 | 0.00 | 0.00 | 0.00 | 92 | 1008.3 |
| 20260506101430 | 75 | 272 | 0.9 | 2.6 | 0.00 | 0.00 | 0.00 | 92 | 1008.3 |
| 20260506100930 | 75 | 30 | 0.9 | 2.6 | 0.00 | 0.00 | 0.00 | 92 | 1008.3 |
| 20260506100430 | 75 | 282 | 0.9 | 2.6 | 0.00 | 0.00 | 0.00 | 92 | 1008.3 |
| 20260506100159 | 75 | 58 | 1.7 | 3.5 | 0.00 | 0.00 | 0.00 | 92 | 1008.4 |
| 20260506095658 | 75 | 246 | 1.7 | 3.5 | 0.00 | 0.00 | 0.00 | 92 | 1008.2 |
| 20260506095159 | 75 | 354 | 1.7 | 4.3 | 0.00 | 0.00 | 0.00 | 92 | 1008.1 |
| 20260506094430 | 75 | 352 | 1.7 | 4.3 | 0.00 | 0.00 | 0.00 | 92 | 1008.1 |
| 20260506093930 | 75 | 254 | 1.7 | 5.2 | 0.00 | 0.00 | 0.00 | 92 | 1008.0 |
| 20260506093429 | 75 | 226 | 1.7 | 5.2 | 0.00 | 0.00 | 0.00 | 92 | 1007.9 |
| 20260506092930 | 75 | 222 | 1.7 | 4.3 | 0.00 | 0.00 | 0.00 | 92 | 1007.9 |
| 20260506092431 | 75 | 149 | 1.7 | 4.3 | 0.00 | 0.00 | 0.00 | 92 | 1007.9 |
| 20260506091930 | 75 | 98 | 0.9 | 3.5 | 0.00 | 0.00 | 0.00 | 92 | 1007.8 |
| 20260506091430 | 75 | 303 | 1.7 | 4.3 | 0.00 | 0.00 | 0.00 | 92 | 1007.8 |
| 20260506091158 | 75 | 267 | 1.7 | 4.3 | 0.00 | 0.00 | 0.00 | 92 | 1007.7 |
| 20260506090657 | 75 | 84 | 1.7 | 4.3 | 0.00 | 0.00 | 0.00 | 91 | 1007.7 |
| 20260506085932 | 75 | 332 | 1.7 | 3.5 | 0.00 | 0.00 | 0.00 | 91 | 1007.6 |
| 20260506085430 | 75 | 215 | 1.7 | 3.5 | 0.00 | 0.00 | 0.00 | 91 | 1007.7 |
| 20260506085158 | 75 | 293 | 1.7 | 3.5 | 0.00 | 0.00 | 0.00 | 91 | 1007.8 |
| 20260506084657 | 75 | 263 | 1.7 | 6.1 | 0.00 | 0.00 | 0.00 | 91 | 1007.8 |
| 20260506083930 | 75 | 268 | 1.7 | 6.1 | 0.00 | 0.00 | 0.00 | 91 | 1007.8 |
| 20260506083655 | 75 | 199 | 1.7 | 4.3 | 0.00 | 0.00 | 0.00 | 91 | 1007.7 |
| 20260506082930 | 75 | 302 | 1.7 | 4.3 | 0.00 | 0.00 | 0.00 | 91 | 1007.6 |
| 20260506082431 | 75 | 230 | 1.7 | 3.5 | 0.00 | 0.00 | 0.00 | 91 | 1007.6 |
| 20260506081930 | 75 | 154 | 1.7 | 5.2 | 0.00 | 0.00 | 0.00 | 91 | 1007.5 |
| 20260506081430 | 75 | 246 | 2.6 | 5.2 | 0.00 | 0.00 | 0.00 | 91 | 1007.5 |
| 20260506080930 | 75 | 237 | 3.5 | 7.8 | 0.00 | 0.00 | 0.00 | 91 | 1007.5 |
| 20260506080430 | 75 | 213 | 2.6 | 7.8 | 0.00 | 0.00 | 0.00 | 91 | 1007.6 |
| 20260506073430 | 75 | 286 | 2.6 | 7.0 | 0.00 | 0.00 | 0.00 | 91 | 1007.8 |
| 20260506072930 | 75 | 275 | 2.6 | 7.8 | 0.00 | 0.00 | 0.00 | 91 | 1007.8 |
| 20260506072429 | 75 | 217 | 3.5 | 7.8 | 0.00 | 0.00 | 0.00 | 91 | 1007.8 |
| 20260506071929 | 75 | 220 | 3.5 | 7.0 | 0.00 | 0.00 | 0.00 | 91 | 1007.8 |
| 20260506071428 | 75 | 224 | 3.5 | 7.0 | 0.00 | 0.00 | 0.00 | 91 | 1007.8 |
| 20260506071208 | 75 | 13 | 2.6 | 7.0 | 0.00 | 0.00 | 0.00 | 91 | 1007.9 |
| 20260506070429 | 75 | 217 | 2.6 | 5.2 | 0.00 | 0.00 | 0.00 | 92 | 1007.9 |
| 20260506062430 | 75 | 237 | 1.7 | 6.1 | 0.00 | 0.00 | 0.00 | 91 | 1007.8 |
| 20260506061929 | 76 | 269 | 1.7 | 6.1 | 0.00 | 0.00 | 0.00 | 92 | 1007.8 |
| 20260506061717 | 76 | 353 | 1.7 | 5.2 | 0.00 | 0.00 | 0.00 | 92 | 1007.7 |
| 20260506060930 | 76 | 287 | 1.7 | 4.3 | 0.00 | 0.00 | 0.00 | 92 | 1007.6 |
| 20260506060430 | 76 | 234 | 1.7 | 4.3 | 0.00 | 0.00 | 0.00 | 92 | 1007.7 |
| 20260506051402 | 76 | 185 | 2.6 | 6.1 | 0.00 | 0.00 | 0.00 | 91 | 1008.0 |
| 20260506050902 | 76 | 272 | 2.6 | 5.2 | 0.00 | 0.00 | 0.00 | 91 | 1008.0 |
| 20260506050402 | 76 | 134 | 1.7 | 4.3 | 0.00 | 0.00 | 0.00 | 91 | 1007.8 |
| 20260506050133 | 76 | 290 | 1.7 | 4.3 | 0.00 | 0.00 | 0.00 | 91 | 1007.8 |
| 20260506044902 | 76 | 268 | 2.6 | 6.1 | 0.00 | 0.00 | 0.00 | 91 | 1007.9 |
| 20260506044402 | 76 | 321 | 2.6 | 6.1 | 0.00 | 0.00 | 0.00 | 91 | 1008.0 |
| 20260506043901 | 76 | 165 | 1.7 | 5.2 | 0.00 | 0.00 | 0.00 | 91 | 1007.9 |
| 20260506043401 | 76 | 166 | 1.7 | 5.2 | 0.00 | 0.00 | 0.00 | 90 | 1007.9 |
| 20260506042901 | 76 | 187 | 1.7 | 5.2 | 0.00 | 0.00 | 0.00 | 90 | 1007.8 |
| 20260506042402 | 76 | 295 | 1.7 | 3.5 | 0.00 | 0.00 | 0.00 | 90 | 1007.8 |
| 20260506041905 | 76 | 182 | 1.7 | 6.1 | 0.00 | 0.00 | 0.00 | 90 | 1007.8 |
| 20260506041402 | 76 | 270 | 1.7 | 6.1 | 0.00 | 0.00 | 0.00 | 90 | 1007.8 |
| 20260506040902 | 76 | 231 | 1.7 | 3.5 | 0.00 | 0.00 | 0.00 | 90 | 1007.8 |
| 20260506040409 | 76 | 249 | 1.7 | 2.6 | 0.00 | 0.00 | 0.00 | 89 | 1007.5 |
| 20260506040401 | 76 | 139 | 1.7 | 3.5 | 0.00 | 0.00 | 0.00 | 89 | 1007.7 |
| 20260506035403 | 76 | 207 | 1.7 | 3.5 | 0.00 | 0.00 | 0.00 | 89 | 1007.6 |
| 20260506034902 | 76 | 54 | 1.7 | 3.5 | 0.00 | 0.00 | 0.00 | 89 | 1007.4 |
| 20260506034403 | 76 | 174 | 1.7 | 4.3 | 0.00 | 0.00 | 0.00 | 89 | 1007.4 |
| 20260506033901 | 76 | 283 | 1.7 | 4.3 | 0.00 | 0.00 | 0.00 | 88 | 1007.3 |
| 20260506033402 | 76 | 95 | 1.7 | 6.1 | 0.00 | 0.00 | 0.00 | 88 | 1007.3 |
| 20260506032900 | 77 | 72 | 1.7 | 6.1 | 0.00 | 0.00 | 0.00 | 88 | 1007.2 |
| 20260506032403 | 77 | 93 | 1.7 | 6.1 | 0.00 | 0.00 | 0.00 | 88 | 1007.2 |
| 20260506031901 | 77 | 212 | 2.6 | 6.1 | 0.00 | 0.00 | 0.00 | 88 | 1007.2 |
| 20260506031643 | 77 | 193 | 1.7 | 6.1 | 0.00 | 0.00 | 0.00 | 88 | 1007.1 |
| 20260506030901 | 77 | 106 | 2.6 | 6.1 | 0.00 | 0.00 | 0.00 | 88 | 1007.0 |
| 20260506030401 | 77 | 53 | 2.6 | 5.2 | 0.00 | 0.00 | 0.00 | 88 | 1007.0 |
| 20260506025900 | 77 | 298 | 2.6 | 5.2 | 0.00 | 0.00 | 0.00 | 87 | 1007.0 |
| 20260506025402 | 77 | 223 | 1.7 | 5.2 | 0.00 | 0.00 | 0.00 | 87 | 1007.0 |
| 20260506024902 | 77 | 57 | 1.7 | 4.3 | 0.00 | 0.00 | 0.00 | 87 | 1006.9 |
| 20260506024401 | 77 | 149 | 1.7 | 4.3 | 0.00 | 0.00 | 0.00 | 87 | 1006.7 |
| 20260506023901 | 77 | 241 | 1.7 | 4.3 | 0.00 | 0.00 | 0.00 | 87 | 1006.6 |
| 20260506023402 | 78 | 119 | 1.7 | 3.5 | 0.00 | 0.00 | 0.00 | 86 | 1006.5 |
| 20260506022902 | 78 | 196 | 1.7 | 4.3 | 0.00 | 0.00 | 0.00 | 86 | 1006.4 |
| 20260506022402 | 78 | 270 | 1.7 | 4.3 | 0.00 | 0.00 | 0.00 | 85 | 1006.3 |
| 20260506021902 | 78 | 65 | 0.9 | 2.6 | 0.00 | 0.00 | 0.00 | 84 | 1006.1 |
| 20260506021402 | 78 | 134 | 0.9 | 2.6 | 0.00 | 0.00 | 0.00 | 84 | 1006.1 |
| 20260506020901 | 78 | 99 | 1.7 | 2.6 | 0.00 | 0.00 | 0.00 | 83 | 1006.0 |
| 20260506020402 | 78 | 48 | 1.7 | 3.5 | 0.00 | 0.00 | 0.00 | 83 | 1005.8 |
| 20260506015906 | 79 | 307 | 0.9 | 2.6 | 0.00 | 0.00 | 0.00 | 83 | 1005.8 |
| 20260506015902 | 78 | 105 | 0.9 | 3.5 | 0.00 | 0.00 | 0.00 | 83 | 1005.8 |
| 20260506014902 | 79 | 295 | 0.9 | 2.6 | 0.00 | 0.00 | 0.00 | 82 | 1005.8 |
| 20260506014634 | 79 | 152 | 0.9 | 3.5 | 0.00 | 0.00 | 0.00 | 82 | 1005.8 |
| 20260506013902 | 79 | 137 | 1.7 | 3.5 | 0.00 | 0.00 | 0.00 | 81 | 1005.7 |
| 20260506013402 | 79 | 150 | 1.7 | 3.5 | 0.00 | 0.00 | 0.00 | 81 | 1005.8 |
| 20260506012902 | 80 | 37 | 1.7 | 4.3 | 0.00 | 0.00 | 0.00 | 80 | 1005.7 |
| 20260506012401 | 80 | 71 | 1.7 | 4.3 | 0.00 | 0.00 | 0.00 | 80 | 1005.6 |
| 20260506012129 | 80 | 183 | 1.7 | 2.6 | 0.00 | 0.00 | 0.00 | 80 | 1005.6 |
| 20260506011402 | 80 | 271 | 0.9 | 2.6 | 0.00 | 0.00 | 0.00 | 79 | 1005.6 |
| 20260506011133 | 81 | 58 | 0.9 | 2.6 | 0.00 | 0.00 | 0.00 | 79 | 1005.7 |
| 20260506010402 | 81 | 290 | 0.9 | 2.6 | 0.00 | 0.00 | 0.00 | 78 | 1005.8 |
| 20260506005904 | 81 | 161 | 0.9 | 2.6 | 0.00 | 0.00 | 0.00 | 78 | 1005.7 |
| 20260506005402 | 81 | 274 | 0.9 | 3.5 | 0.00 | 0.00 | 0.00 | 77 | 1005.7 |
| 20260506004902 | 82 | 170 | 0.9 | 3.5 | 0.00 | 0.00 | 0.00 | 76 | 1005.7 |
| 20260506004402 | 82 | 161 | 0.9 | 2.6 | 0.00 | 0.00 | 0.00 | 76 | 1005.6 |
| 20260506003901 | 82 | 155 | 0.9 | 4.3 | 0.00 | 0.00 | 0.00 | 76 | 1005.6 |
| 20260506003640 | 82 | 138 | 1.7 | 4.3 | 0.00 | 0.00 | 0.00 | 76 | 1005.6 |
| 20260506002902 | 82 | 55 | 1.7 | 4.3 | 0.00 | 0.00 | 0.00 | 76 | 1005.6 |
| 20260506002401 | 82 | 211 | 1.7 | 4.3 | 0.00 | 0.00 | 0.00 | 75 | 1005.6 |
| 20260506001901 | 82 | 256 | 1.7 | 4.3 | 0.00 | 0.00 | 0.00 | 75 | 1005.7 |
| 20260506001401 | 82 | 56 | 1.7 | 4.3 | 0.00 | 0.00 | 0.00 | 74 | 1005.7 |
| 20260506000936 | 82 | 324 | 1.7 | 4.3 | 0.00 | 0.00 | 0.00 | 74 | 1005.7 |
| 20260506000926 | 82 | 346 | 1.7 | 4.3 | 0.00 | 0.00 | 0.00 | 74 | 1005.7 |
| 20260505235902 | 83 | 67 | 1.7 | 4.3 | 0.00 | 0.00 | 0.00 | 74 | 1005.7 |
| 20260505235401 | 83 | 126 | 0.9 | 4.3 | 0.00 | 0.00 | 0.00 | 73 | 1005.6 |
| 20260505234901 | 83 | 235 | 1.7 | 5.2 | 0.00 | 0.00 | 0.00 | 74 | 1005.5 |
| 20260505234400 | 83 | 209 | 1.7 | 7.0 | 0.00 | 0.00 | 0.00 | 73 | 1005.4 |
| 20260505233900 | 83 | 119 | 2.6 | 7.0 | 0.00 | 0.00 | 0.00 | 72 | 1005.4 |
| 20260505233400 | 83 | 292 | 2.6 | 5.2 | 0.00 | 0.00 | 0.00 | 73 | 1005.3 |
| 20260505232901 | 83 | 216 | 2.6 | 9.6 | 0.00 | 0.00 | 0.00 | 73 | 1005.2 |
| 20260505232644 | 83 | 274 | 2.6 | 9.6 | 0.00 | 0.00 | 0.00 | 72 | 1005.2 |
| 20260505231901 | 84 | 147 | 1.7 | 6.1 | 0.00 | 0.00 | 0.00 | 71 | 1005.1 |
| 20260505231401 | 84 | 209 | 1.7 | 5.2 | 0.00 | 0.00 | 0.00 | 72 | 1005.1 |
| 20260505230901 | 84 | 234 | 1.7 | 5.2 | 0.00 | 0.00 | 0.00 | 71 | 1005.2 |
| 20260505230401 | 84 | 177 | 1.7 | 5.2 | 0.00 | 0.00 | 0.00 | 72 | 1005.1 |
| 20260505225901 | 83 | 263 | 1.7 | 5.2 | 0.00 | 0.00 | 0.00 | 71 | 1005.1 |
| 20260505225400 | 83 | 133 | 1.7 | 4.3 | 0.00 | 0.00 | 0.00 | 72 | 1005.1 |
| 20260505224901 | 83 | 169 | 1.7 | 5.2 | 0.00 | 0.00 | 0.00 | 72 | 1005.1 |
| 20260505224401 | 84 | 176 | 1.7 | 5.2 | 0.00 | 0.00 | 0.00 | 72 | 1005.1 |
| 20260505224141 | 84 | 0 | 1.7 | 7.8 | 0.00 | 0.00 | 0.00 | 72 | 1005.1 |
| 20260505223401 | 84 | 239 | 2.6 | 7.8 | 0.00 | 0.00 | 0.00 | 73 | 1005.1 |
| 20260505222902 | 84 | 134 | 2.6 | 7.0 | 0.00 | 0.00 | 0.00 | 71 | 1005.0 |
| 20260505222643 | 84 | 238 | 2.6 | 6.1 | 0.00 | 0.00 | 0.00 | 71 | 1004.9 |
| 20260505221902 | 84 | 175 | 2.6 | 6.1 | 0.00 | 0.00 | 0.00 | 71 | 1005.0 |
| 20260505221400 | 85 | 243 | 2.6 | 8.7 | 0.00 | 0.00 | 0.00 | 71 | 1005.1 |
| 20260505220901 | 85 | 320 | 1.7 | 8.7 | 0.00 | 0.00 | 0.00 | 70 | 1005.2 |
| 20260505220643 | 85 | 95 | 2.6 | 7.0 | 0.00 | 0.00 | 0.00 | 70 | 1005.2 |
| 20260505215901 | 85 | 130 | 2.6 | 6.1 | 0.00 | 0.00 | 0.00 | 70 | 1005.2 |
| 20260505215402 | 85 | 295 | 2.6 | 7.0 | 0.00 | 0.00 | 0.00 | 70 | 1005.4 |
| 20260505214901 | 84 | 269 | 3.5 | 7.0 | 0.00 | 0.00 | 0.00 | 71 | 1005.4 |
| 20260505214402 | 85 | 261 | 3.5 | 7.0 | 0.00 | 0.00 | 0.00 | 69 | 1005.4 |
| 20260505213902 | 85 | 271 | 2.6 | 6.1 | 0.00 | 0.00 | 0.00 | 68 | 1005.5 |
| 20260505213402 | 85 | 119 | 1.7 | 7.0 | 0.00 | 0.00 | 0.00 | 68 | 1005.5 |
| 20260505213144 | 85 | 225 | 2.6 | 9.6 | 0.00 | 0.00 | 0.00 | 69 | 1005.4 |
| 20260505212401 | 85 | 52 | 2.6 | 9.6 | 0.00 | 0.00 | 0.00 | 68 | 1005.6 |
| 20260505211901 | 85 | 146 | 2.6 | 10.4 | 0.00 | 0.00 | 0.00 | 69 | 1005.8 |
| 20260505211401 | 84 | 328 | 2.6 | 10.4 | 0.00 | 0.00 | 0.00 | 70 | 1005.8 |
| 20260505210901 | 84 | 316 | 2.6 | 8.7 | 0.00 | 0.00 | 0.00 | 69 | 1005.8 |
| 20260505210647 | 84 | 237 | 2.6 | 8.7 | 0.00 | 0.00 | 0.00 | 71 | 1005.7 |
| 20260505205904 | 84 | 159 | 2.6 | 7.0 | 0.00 | 0.00 | 0.00 | 71 | 1005.8 |
| 20260505205402 | 84 | 219 | 2.6 | 7.0 | 0.00 | 0.00 | 0.00 | 69 | 1005.9 |
| 20260505205143 | 83 | 125 | 2.6 | 6.1 | 0.00 | 0.00 | 0.00 | 70 | 1006.0 |
| 20260505204401 | 83 | 118 | 2.6 | 7.0 | 0.00 | 0.00 | 0.00 | 72 | 1006.0 |
| 20260505203901 | 83 | 254 | 2.6 | 7.0 | 0.00 | 0.00 | 0.00 | 71 | 1005.9 |
| 20260505203401 | 84 | 153 | 2.6 | 7.0 | 0.00 | 0.00 | 0.00 | 70 | 1006.1 |
| 20260505202902 | 84 | 228 | 2.6 | 8.7 | 0.00 | 0.00 | 0.00 | 71 | 1006.3 |
| 20260505202651 | 83 | 260 | 2.6 | 8.7 | 0.00 | 0.00 | 0.00 | 72 | 1006.3 |
| 20260505201903 | 83 | 250 | 2.6 | 7.0 | 0.00 | 0.00 | 0.00 | 72 | 1006.5 |
| 20260505201648 | 84 | 10 | 2.6 | 8.7 | 0.00 | 0.00 | 0.00 | 72 | 1006.7 |
| 20260505201148 | 84 | 195 | 2.6 | 8.7 | 0.00 | 0.00 | 0.00 | 72 | 1006.7 |
| 20260505200401 | 83 | 34 | 3.5 | 10.4 | 0.00 | 0.00 | 0.00 | 72 | 1006.7 |
| 20260505195902 | 83 | 225 | 3.5 | 10.4 | 0.00 | 0.00 | 0.00 | 72 | 1006.7 |
| 20260505195401 | 83 | 248 | 2.6 | 8.7 | 0.00 | 0.00 | 0.00 | 72 | 1006.8 |
| 20260505194901 | 83 | 260 | 2.6 | 8.7 | 0.00 | 0.00 | 0.00 | 73 | 1006.7 |
| 20260505194401 | 82 | 52 | 2.6 | 7.0 | 0.00 | 0.00 | 0.00 | 74 | 1006.9 |
| 20260505193901 | 82 | 257 | 2.6 | 7.8 | 0.00 | 0.00 | 0.00 | 74 | 1007.1 |
| 20260505193401 | 82 | 196 | 2.6 | 7.8 | 0.00 | 0.00 | 0.00 | 75 | 1007.2 |
| 20260505193146 | 82 | 209 | 2.6 | 6.1 | 0.00 | 0.00 | 0.00 | 73 | 1007.2 |
| 20260505192401 | 82 | 352 | 2.6 | 6.1 | 0.00 | 0.00 | 0.00 | 73 | 1007.2 |
| 20260505191901 | 82 | 186 | 2.6 | 6.1 | 0.00 | 0.00 | 0.00 | 74 | 1007.2 |
| 20260505191401 | 82 | 253 | 3.5 | 7.0 | 0.00 | 0.00 | 0.00 | 75 | 1007.3 |
| 20260505190901 | 82 | 227 | 3.5 | 7.0 | 0.00 | 0.00 | 0.00 | 75 | 1007.3 |
| 20260505190401 | 82 | 163 | 3.5 | 6.1 | 0.00 | 0.00 | 0.00 | 74 | 1007.3 |
| 20260505185900 | 81 | 268 | 3.5 | 6.1 | 0.00 | 0.00 | 0.00 | 75 | 1007.3 |
| 20260505185401 | 80 | 174 | 3.5 | 6.1 | 0.00 | 0.00 | 0.00 | 76 | 1007.4 |
| 20260505184901 | 80 | 307 | 3.5 | 9.6 | 0.00 | 0.00 | 0.00 | 76 | 1007.5 |
| 20260505184401 | 79 | 250 | 3.5 | 9.6 | 0.00 | 0.00 | 0.00 | 77 | 1007.6 |
| 20260505183900 | 79 | 234 | 3.5 | 7.8 | 0.00 | 0.00 | 0.00 | 76 | 1007.7 |
| 20260505183401 | 79 | 101 | 2.6 | 6.1 | 0.00 | 0.00 | 0.00 | 77 | 1007.7 |
| 20260505182901 | 79 | 328 | 2.6 | 7.0 | 0.00 | 0.00 | 0.00 | 78 | 1007.7 |
| 20260505182644 | 79 | 175 | 2.6 | 7.0 | 0.00 | 0.00 | 0.00 | 78 | 1007.8 |
| 20260505182150 | 78 | 264 | 2.6 | 7.0 | 0.00 | 0.00 | 0.00 | 79 | 1007.7 |
| 20260505181402 | 78 | 214 | 3.5 | 7.8 | 0.00 | 0.00 | 0.00 | 79 | 1007.8 |
| 20260505181221 | 77 | 213 | 3.5 | 9.6 | 0.00 | 0.00 | 0.00 | 79 | 1008.0 |
| 20260505180924 | 77 | 185 | 4.3 | 9.6 | 0.00 | 0.00 | 0.00 | 80 | 1007.9 |
| 20260505175900 | 78 | 215 | 3.5 | 7.0 | 0.00 | 0.00 | 0.00 | 79 | 1008.1 |
| 20260505175401 | 77 | 231 | 3.5 | 7.0 | 0.00 | 0.00 | 0.00 | 80 | 1008.1 |
| 20260505174901 | 77 | 133 | 3.5 | 9.6 | 0.00 | 0.00 | 0.00 | 80 | 1008.2 |
| 20260505174405 | 77 | 250 | 3.5 | 9.6 | 0.00 | 0.00 | 0.00 | 81 | 1008.1 |
| 20260505173900 | 77 | 264 | 3.5 | 7.0 | 0.00 | 0.00 | 0.00 | 81 | 1008.1 |